Flag for Japan Weather past 2 weeks in Fukushima, Japan

Now
73 °F

Mild.


Feels Like: 75 °F
Forecast: 60 / 85 °F
Wind: 3 mph from West

Location: Wakamatsu

Current Time: Jul 6, 2015 at 10:11:18 AM

Latest Report: Jul 6, 2015 at 9:00 AM


Visibility: 12 mi

Pressure: 29.88 "Hg

Humidity: 75%

Dew point: 65 °F

Location of FukushimaLocation

Historic Weather in Fukushima — Graph

°F

Fukushima temperature yesterday

Maximum temperature yesterday: 78 °F (at 4:00 PM)
Minimum temperature yesterday: 63 °F (at 5:00 AM)
Average temperature yesterday: 70 °F

Past Weeks' High & Low Weather Summary

 TemperatureHumidityPressure
High87 °F (Jun 25, 1:00 PM)100% (Jun 21, 9:00 PM)29.93 "Hg (Jun 21, 9:00 PM)
Low61 °F (Jun 24, 4:00 AM)30% (Jun 24, 3:00 PM)29.23 "Hg (Jul 1, 1:00 PM)
Average71 °F78%29.71 "Hg
* Reported Jun 21 8:00 AM — Jul 6 8:00 AM, Fukushima, Weather by CustomWeather, © 2015

Note: Actual official high and low records may vary slightly from our data, if they occured in-between our weather recording intervals... More about our weather records

Advertising

Fukushima weather history for previous 24 hours

 ConditionsComfort  
Time TempWeatherWind HumidityBarometerVisibility
8:00 AM
Mon, Jul 6
70 °FMild.3 mph81%29.90 "Hg9 mi
7:00 AM67 °FMild.2 mph87%29.92 "Hg7 mi
6:00 AM65 °FMild.3 mph94%29.93 "Hg7 mi
5:00 AM64 °FMild.2 mph95%29.92 "Hg7 mi
4:00 AM64 °FMild.2 mph94%29.90 "Hg7 mi
3:00 AM65 °FMild.1 mph95%29.89 "Hg7 mi
2:00 AM65 °FMild.2 mph94%29.89 "Hg7 mi
1:00 AM65 °FMild.2 mph94%29.88 "Hg7 mi
12:00 AM67 °FMild.3 mph89%29.88 "Hg8 mi
11:00 PM
Sun, Jul 5
67 °FMild.2 mph90%29.88 "Hg10 mi
10:00 PM68 °FMild.3 mph89%29.87 "Hg9 mi
9:00 PM70 °FMild.2 mph78%29.87 "Hg11 mi
8:00 PM72 °FMild.2 mph77%29.85 "Hg11 mi
7:00 PM73 °FMild.5 mph71%29.83 "Hg12 mi
6:00 PM75 °FMild.7 mph66%29.82 "Hg12 mi
5:00 PM77 °FWarm.6 mph60%29.80 "Hg12 mi
4:00 PM78 °FWarm.7 mph55%29.82 "Hg12 mi
3:00 PM77 °FWarm.5 mph53%29.82 "Hg12 mi
2:00 PM75 °FMild.5 mph53%29.82 "Hg12 mi
1:00 PM75 °FMild.6 mph58%29.84 "Hg12 mi
11:00 AM71 °FMild.2 mph69%29.87 "Hg12 mi
10:00 AM70 °FMild.3 mph76%29.88 "Hg12 mi
Weather by CustomWeather, © 2015

See weather overviewHow to use our weather pages